Domény  |  Webhosting  |  VPS


V tuto chvíli si zábavné a zajímavé obrázky prohlíží 77 uživatelů z webu a 2 z mobilu...

 NOVÉ 0:04  4   2/0    nebulte
 NOVÉ 16.02.2020  2   2/2    vsichni svati
 NOVÉ 16.02.2020  5   0/0    kdo by si vzal o 12 let starsi babu
 NOVÉ 16.02.2020  4   2/5    1939 flashback
 NOVÉ 16.02.2020  1   2/3    potom to tak vyzera
 NOVÉ 16.02.2020  27   17/38    huawei p30
 NOVÉ 16.02.2020  0   12/1    przdna hlava 2020
 NOVÉ 16.02.2020  3   10/2    vzdycky most 2020
 NOVÉ 16.02.2020  9   12/15    twwet 2020
 NOVÉ 16.02.2020  0   2/7    lampicka 2020
 NOVÉ 16.02.2020  4   6/7    coronavirus 2020 2
 NOVÉ 16.02.2020  3   4/14    Doktor 2020
 NOVÉ 16.02.2020  2   5/1    - fujtajbl to sem se lek -
 NOVÉ 16.02.2020  7   11/3    Bitcoin je zabava
 NOVÉ 16.02.2020  1   19/2    napnute kosele VS napnute kosele
 NOVÉ 16.02.2020  3   13/4    Souboj titanu
 NOVÉ 16.02.2020  0   8/2    dnes uz vrazi nejsou to co byvali
 NOVÉ 16.02.2020  3   7/1    gnbn
 NOVÉ 16.02.2020  5   7/1    Frozen Syria
 NOVÉ 16.02.2020  0   11/10    Just hold it
 NOVÉ 16.02.2020  3   10/4    Deepest
 NOVÉ 16.02.2020  22   22/2    Put--in
 NOVÉ 16.02.2020  3   4/9    Lehke sexualni naznaky
 NOVÉ 16.02.2020  8   9/4    Hate-when-it-happens
 NOVÉ 16.02.2020  4   15/1    --Wholesome
 NOVÉ 16.02.2020  3   9/1    Special valentine day
 NOVÉ 16.02.2020  4   27/1    Outside-has-the-big-gay
 NOVÉ 16.02.2020  0   8/6    Mission-Failed
 NOVÉ 16.02.2020  9   12/1    Najdi rozdil mezi muslimy a Kotlebovci
 NOVÉ 16.02.2020  0   14/4    Its-homeopathic-with-essential-oils
 NOVÉ 16.02.2020  1   11/6    I-want-to-die
 NOVÉ 16.02.2020  4   14/0    I-Know-now
 NOVÉ 16.02.2020  4   4/2    fetka in future
 NOVÉ 16.02.2020  32   4/4    Crack the Code
 NOVÉ 15.02.2020  1   4/8    plakaty 11
 NOVÉ 15.02.2020  1   5/8    plakaty 9
 NOVÉ 15.02.2020  0   5/8    plakaty 10
 NOVÉ 15.02.2020  0   3/9    plakaty 8
 NOVÉ 15.02.2020  2   5/8    plakaty 7
 NOVÉ 15.02.2020  0   4/9    plakaty 6
 NOVÉ 15.02.2020  0   5/8    plakaty 5
 NOVÉ 15.02.2020  1   5/7    plakaty 4
 NOVÉ 15.02.2020  0   4/7    plakaty 3
 NOVÉ 15.02.2020  0   6/7    plakaty 2
 NOVÉ 15.02.2020  2   5/7    plakaty 1
 NOVÉ 15.02.2020  1   8/5    insta puss
 NOVÉ 15.02.2020  2   16/1    girl playng with her pussy
 NOVÉ 15.02.2020  4   11/4    rousky jsou nejlepsi darek
 NOVÉ 15.02.2020  18   14/7    - ze zverimexu -
 NOVÉ 15.02.2020  1   8/1    cool pants
 NOVÉ 15.02.2020  2   11/2    FB ADS
 NOVÉ 15.02.2020  3   13/0    - ZEN sutr -
 NOVÉ 15.02.2020  25   3/5    Objektiv Sigma 800 mm 229 km v praxi
 NOVÉ 15.02.2020  14   5/4    Objektiv Sony Reflex 500 mm 6 km
 NOVÉ 15.02.2020  24   5/4    Objektiv MTO 1000a v praxi
 NOVÉ 15.02.2020  4   5/3    ma ji malou
 NOVÉ 15.02.2020  9   10/12    to je uz moc
 NOVÉ 15.02.2020  0   7/12    sajuz nerus ty mna
 NOVÉ 15.02.2020  0   12/2    kudlanka bezbozna
 NOVÉ 15.02.2020  6   15/4    telekineticke schopnosti
 NOVÉ 15.02.2020  5   11/13    IMG-20200215-WA0008
 NOVÉ 15.02.2020  0   20/1    - zimni jezura -
 NOVÉ 15.02.2020  4   10/2    - Hyjeee -
 NOVÉ 15.02.2020  6   6/18    podpis hore sem
 NOVÉ 15.02.2020  3   13/3    koukej mi do voci
 NOVÉ 15.02.2020  2   10/3    a luza maka a plati dane
 NOVÉ 15.02.2020  5   15/36    To zas bude hejtu
 NOVÉ 15.02.2020  2   6/3    - opozdila Valentinka -
 NOVÉ 15.02.2020  11   10/3    - M.HRDY - desetniky -
 NOVÉ 15.02.2020  5   23/3    look mom no hands
 NOVÉ 15.02.2020  3   6/9    prijimam telo pana
 NOVÉ 15.02.2020  3   14/3    dark Harley
 NOVÉ 15.02.2020  2   1/10    catolic pedofiles be like
 NOVÉ 15.02.2020  1   5/4    Jezis Nemanzelsky za mlada
 NOVÉ 15.02.2020  0   15/0    true metal fan
 NOVÉ 15.02.2020  0   6/2    tetovacie studio
 NOVÉ 15.02.2020  6   10/0    kolko pasazierov si menilo spodky
 NOVÉ 15.02.2020  7   16/0    elektrosen4
 NOVÉ 15.02.2020  7   16/0    elektrosen3
 NOVÉ 15.02.2020  2   18/0    elektrosen2
 NOVÉ 15.02.2020  6   25/0    elektrosen1
 NOVÉ 15.02.2020  3   18/5    uklizecka malicka
 NOVÉ 15.02.2020  1   9/4    poletucha
 NOVÉ 15.02.2020  2   11/4    pichni mi vakcinu
 NOVÉ 15.02.2020  6   12/8    bang would not
 NOVÉ 15.02.2020  7   15/6    wet Cleopatra
 NOVÉ 15.02.2020  1   11/3    ma ho tam velkyho
 NOVÉ 15.02.2020  0   19/2    thicc Lara
 NOVÉ 15.02.2020  5   10/3    za Hordu zivot polozis
 NOVÉ 15.02.2020  0   14/5    Paladin or warlock
 NOVÉ 15.02.2020  0   19/3    Frostwolf clan
 NOVÉ 15.02.2020  0   10/6    Sylvanas did nothing wrong 2
 NOVÉ 15.02.2020  3   12/3    vingardium leviosaaah
 NOVÉ 15.02.2020  0   14/3    not so holy priest
 NOVÉ 15.02.2020  4   22/4    Belfka
 NOVÉ 15.02.2020  8   14/3    Warcraft 3 reforged je fuj
 NOVÉ 15.02.2020  5   26/7    Zug zug
 NOVÉ 15.02.2020  8   3/3    gf after 14 years
 NOVÉ 15.02.2020  3   14/3    IMG-20200214-WA0001
 NOVÉ 15.02.2020  5   16/1    Chibicka
 NOVÉ 14.02.2020  5   8/2    valentines romance roumenist
 NOVÉ 14.02.2020  7   39/0    Now its your turn
 NOVÉ 14.02.2020  1   18/0    Vergina
 NOVÉ 14.02.2020  4   41/0    Untitled472
 NOVÉ 14.02.2020  2   21/0    This-Xenomorph-horse
 NOVÉ 14.02.2020  0   9/2    Chewy 61
 NOVÉ 14.02.2020  3   7/4    Pu a valentyn
 NOVÉ 14.02.2020  2   25/1    Killin bacteria
 NOVÉ 14.02.2020  1   23/1    Translated-from-local-source
 NOVÉ 14.02.2020  19   20/13    kozel zahradnikem
 NOVÉ 14.02.2020  0   10/1    from China with Love
 NOVÉ 14.02.2020  0   8/4    flower of the season
 NOVÉ 14.02.2020  2   20/0    svet v plamenech
 NOVÉ 14.02.2020  3   10/2    taky vam dava vas kosik sexualni navrhy
 NOVÉ 14.02.2020  2   28/2    zelezne zasoby
 NOVÉ 14.02.2020  3   35/3    IMG-20200214-WA0003
 NOVÉ 14.02.2020  1   5/6    pro prodavace topri
 NOVÉ 14.02.2020  0   19/2    kaboom tsss
 NOVÉ 14.02.2020  1   14/5    Milosu ty taky
 NOVÉ 14.02.2020  1   36/1    valentine special
 NOVÉ 14.02.2020  11   2/9    jen si je pronajimaji
 NOVÉ 14.02.2020  3   11/2    god joke
 NOVÉ 14.02.2020  1   1/6    only fake do
 NOVÉ 14.02.2020  5   11/8    equal rights and lefts
 NOVÉ 14.02.2020  5   4/7    Jeremias Washington
 NOVÉ 14.02.2020  6   5/5    rejp friiii
 NOVÉ 14.02.2020  0   20/6    valentyn darek
 NOVÉ 14.02.2020  0   3/3    kto si chce privirobit
 NOVÉ 14.02.2020  5   8/0    - Dead Astronaut -
 NOVÉ 14.02.2020  1   19/1    I made dis
 NOVÉ 14.02.2020  1   11/1    I-am-running-out-of-babies
 NOVÉ 14.02.2020  16   16/1    Devucha z hor vypada jako dobra partie
 NOVÉ 14.02.2020  1   26/0    2Period
 NOVÉ 14.02.2020  4   26/8    Whose-chopper-is-this
 NOVÉ 14.02.2020  10   11/3    86171550 2777599665653383 86652751173...
 NOVÉ 14.02.2020  3   1/4    matter doesnt sex had
 NOVÉ 14.02.2020  10   3/4    seks statistiks
 NOVÉ 14.02.2020  5   13/1    Halloween 2020
 NOVÉ 14.02.2020  3   22/0    Kreckovo
 NOVÉ 14.02.2020  1   17/1    Actually-Ill-go-break-up-with-my-girl...
 NOVÉ 14.02.2020  32   14/1    IMG-20200213-WA0006
 NOVÉ 14.02.2020  1   10/2    IMG-20200210-WA0010
 NOVÉ 14.02.2020  18   15/12    fetki pro kikoti
 NOVÉ 14.02.2020  18   22/5    amerikanski stihacki
 NOVÉ 14.02.2020  5   43/2    IMG-20200214-WA0000
 NOVÉ 14.02.2020  5   20/1    weeee
 NOVÉ 14.02.2020  18   25/5    tomejto tomaato
 NOVÉ 14.02.2020  3   20/4    Snalldick
 NOVÉ 14.02.2020  5   12/15    Fabrika na televize
 NOVÉ 14.02.2020  3   9/1    Valentines idea
 NOVÉ 14.02.2020  2   20/1    Mums-on-Facebook
 NOVÉ 14.02.2020  1   55/0    Thats-all-she-want
 NOVÉ 14.02.2020  2   16/3    Ok-Boomer
 NOVÉ 14.02.2020  12   8/21    Kdo se se nezasmeje pujde do gulagu
 NOVÉ 14.02.2020  12   19/9    valentine pyco


Vítejte na Roumingu, serveru plném zábavných a zajímavých obrázků, videí, vtipů a odkazů. Najdete zde materiál pro hodiny a hodiny online zábavy a legrace.
Je zde obrovské množství zábavných a zajímavých obrázků, legračních videí, mnoho vtipů a celá řada odkazů. Kromě toho zde máme diskusní fórum a komu to nestačí, je zde i ostřejší sekce na sesterském webu Roumenovo Maso, která je přístupná až od 18 let.

Pravidla    Kontakt
Tento web používá k poskytování služeb, personalizaci reklam a analýze návštěvnosti soubory cookie. Podmínky pro uchovávání nebo přístup ke cookies je možné nastavit ve vašem prohlížeči. Více...